Regional Weather Roundup
Issued by NWS Tampa Bay Area, FL

Home | Current Version | Previous Version | Text Only | Print | Product List | Glossary On
Versions: 1 2 3 4 5 6 7 8 9 10 11 12 13 14 15 16 17 18 19 20 21 22 23 24 25 26 27
000
NZUS99 KTBW 030916
RWRTBW
Regional Weather Roundup National Weather Service Ruskin Florida
500 AM EDT TUE AUG 03 2021


CITY           SKY/WX    TMP DP  RH WIND       PRES   REMARKS
Cross City     HVY RAIN  74  74  98 S7        29.94F
Williston      RAIN      74  73  98 S10       29.97S FOG
Gainesville    LGT RAIN  74  73  97 SW12      29.98S
Ocala          RAIN      74  74 100 SW12      30.00R
Crystal River    N/A     73  73 100 CALM      30.00R
Inverness      HVY RAIN  72  72 100 SW7       30.00R
Leesburg       LGT RAIN  77  74  90 W3        29.99R
Orlando        CLOUDY    77  73  87 SW3       29.97S
Brooksville    HVY RAIN  73  71  93 VRB6      30.01R VSB 3/4
Zephyrhills    CLEAR     74  73  96 CALM      29.99R
Lakeland       PTCLDY    73  72  94 CALM      29.98R
Winter Haven   PTCLDY    76  72  87 S6        29.99R
Bartow         FAIR     N/A N/A N/A SW3       29.99R

CITY           SKY/WX    TMP DP  RH WIND       PRES   REMARKS
Tampa Intl     MOCLDY    83  76  79 W5        29.96S
Tampa Exec     PTCLDY    77  75  94 CALM      29.98R
MacDill AFB    MOCLDY    83  72  68 SW9       29.93R
Peter O Knight MOCLDY    82  77  83 W3        29.96S
Plant City     PTCLDY    75  75 100 SE3       29.99R
Clearwater     PTCLDY    81  75  82 SW6       29.95F
St Petersburg  PTCLDY    84  75  74 SW9       29.93F
Sarasota       PTCLDY    85  76  74 SW13      29.94S
Sebring        FAIR      76  74  94 CALM      29.98S
Punta Gorda    CLEAR     79  76  90 S3        29.98F
Ft Myers       CLEAR     80  75  84 S5        29.96F
Ft Myers-RSW   PTCLDY    79  73  82 CALM      29.97F
Naples         PTCLDY    81  75  82 SW7       29.97F

STATION/POSITION SKY/WX   TEMP WIND        PRES    VSBY
                          AIR  DIR/SP/G
                          (F)  (DEG/KT/KT) (MB)    (MI)
Keaton Beach               80  180/ 14/ 15 1012.9F
Sand Key                   84  200/ 10/ 12 1015.9
039 Panama City            83  250/ 16/ 19 1013.5F
036 Bayport                81  260/ 16/ 19 1017.7R
003 Captiva                85  230/ 10/ 14 1013.6F
Venice                     85  220/ 12/ 13 1014.4S
Cedar Key                  77  190/  8/  9 1014.5F

CITY           SKY/WX    TMP DP  RH WIND       PRES   REMARKS
Tallahassee    CLOUDY    75  74  96 S5        29.90F
Daytona Beach  RAIN      76  73  91 SW5       29.96F
Melbourne      MOCLDY    76  73  91 S5        29.97S
W Palm Beach   MOCLDY    79  77  94 SW7       29.98F
Miami          MOCLDY    82  77  84 S5        29.98F
Key West       CLEAR     84  76  76 S9        29.99F
San Juan, PR   PTCLDY    79  73  83 CALM      30.03R
Cancun, MX     CLEAR     79  75  89 CALM      29.99F




USA.gov is the U.S. government's official web portal to all federal, state and local government web resources and services.